Date String (YYYY-MM-DD hh:mm:ss) UTC,Instrument flags,Ambient pressure (hPa),Sample flow (lpm),Bypass flow (lpm),Sample temperature (°C),Ambient temperature (°C),ASC tube jacket temperature (°C),LED temperature (°C),Box temperature (°C),Sample RH (%),Span deviation,Mass concentration (μg/m³),Mass concentration (μg/m³),Mass concentration (μg/m³)
DateTimeUTC,F1_M11,P_M11,Q1_M11,Q2_M11,T1_M11,T2_M11,T3_M11,T4_M11,T5_M11,U1_M11,ZSPAN_M11,X0_M11,X2_M11,X1_M11
2021-09-08 18:00:00,,0832.9,5.01,0.00,29.4,27.7,00.0,38.4,31.1,20.0,0001.8,0062.37,0037.57,0034.88
2021-09-08 18:01:00,,0832.9,5.00,0.00,29.4,28.0,00.0,38.4,31.2,20.1,0001.6,0062.94,0037.61,0034.88
2021-09-08 18:02:00,,0832.8,4.99,0.00,29.4,28.3,00.0,38.4,31.3,20.4,0001.5,0062.31,0037.62,0034.87
2021-09-08 18:03:00,,0832.8,4.99,0.00,29.5,28.5,00.0,38.5,31.4,20.1,0001.4,0061.56,0037.70,0034.89
2021-09-08 18:04:00,,0832.8,4.99,0.00,29.6,28.6,00.0,38.5,31.4,19.8,0001.6,0060.53,0037.63,0034.84
2021-09-08 18:05:00,,0832.8,5.00,0.00,29.5,27.5,00.0,38.5,31.2,20.0,0001.9,0059.83,0037.49,0034.76
2021-09-08 18:06:00,,0832.8,5.01,0.00,29.4,26.0,00.0,38.5,30.7,20.4,0001.8,0060.44,0037.56,0034.78
2021-09-08 18:07:00,,0832.9,4.99,0.00,29.3,26.2,00.0,38.4,30.7,20.5,0002.0,0060.82,0037.56,0034.80
2021-09-08 18:08:00,,0832.9,4.98,0.00,29.3,26.6,00.0,38.4,30.9,20.2,0002.0,0059.29,0037.50,0034.81
2021-09-08 18:09:00,,0832.8,5.00,0.00,29.3,27.0,00.0,38.4,30.9,20.1,0002.2,0059.25,0037.54,0034.81
2021-09-08 18:10:00,,0832.8,5.00,0.00,29.3,27.5,00.0,38.4,31.0,20.3,0002.3,0057.78,0037.53,0034.78
2021-09-08 18:11:00,,0832.8,5.01,0.00,29.3,27.8,00.0,38.4,31.1,20.3,0002.4,0057.16,0037.56,0034.78
2021-09-08 18:12:00,,0832.9,5.01,0.00,29.4,28.1,00.0,38.4,31.2,20.5,0002.6,0057.39,0037.55,0034.77
2021-09-08 18:13:00,,0832.8,4.99,0.00,29.4,28.3,00.0,38.4,31.3,19.9,0002.6,0057.30,0037.58,0034.81
2021-09-08 18:14:00,,0832.8,5.00,0.00,29.5,28.2,00.0,38.4,31.3,20.1,0002.8,0057.44,0037.54,0034.81
2021-09-08 18:15:00,,0832.8,5.00,0.00,29.4,26.6,00.0,38.4,30.9,20.1,0002.7,0057.98,0037.54,0034.83
2021-09-08 18:16:00,,0832.8,5.01,0.00,29.3,25.8,00.0,38.4,30.6,20.3,0002.4,0058.67,0037.63,0034.89
2021-09-08 18:17:00,,0832.7,5.00,0.00,29.2,26.2,00.0,38.4,30.7,20.5,0002.5,0058.28,0037.64,0034.90
2021-09-08 18:18:00,,0832.8,4.99,0.00,29.2,26.6,00.0,38.3,30.8,20.5,0002.4,0058.43,0037.72,0034.93
2021-09-08 18:19:00,,0832.7,5.01,0.00,29.2,27.1,00.0,38.3,30.9,19.8,0002.4,0057.79,0037.76,0034.95
2021-09-08 18:20:00,,0832.7,4.99,0.00,29.2,27.5,00.0,38.3,31.0,19.5,0002.2,0056.98,0037.71,0034.95
2021-09-08 18:21:00,,0832.7,5.02,0.00,29.3,27.8,00.0,38.3,31.1,19.4,0002.0,0056.76,0037.61,0034.90
2021-09-08 18:22:00,,0832.7,4.98,0.00,29.3,28.1,00.0,38.3,31.2,20.1,0001.7,0055.61,0037.55,0034.87
2021-09-08 18:23:00,,0832.7,5.01,0.00,29.4,28.3,00.0,38.3,31.3,19.9,0001.5,0055.26,0037.55,0034.88
2021-09-08 18:24:00,,0832.8,5.00,0.00,29.4,28.5,00.0,38.4,31.4,20.0,0001.3,0056.67,0037.63,0034.88
2021-09-08 18:25:00,,0832.8,4.99,0.00,29.5,28.6,00.0,38.4,31.4,20.0,0001.1,0057.22,0037.62,0034.85
2021-09-08 18:26:00,,0832.8,5.01,0.00,29.5,27.2,00.0,38.4,31.0,19.8,0000.8,0058.08,0037.60,0034.82
2021-09-08 18:27:00,,0832.8,4.99,0.00,29.3,26.0,00.0,38.4,30.7,19.8,0000.9,0058.08,0037.61,0034.78
2021-09-08 18:28:00,,0832.8,5.00,0.00,29.2,26.2,00.0,38.4,30.7,19.4,0001.0,0058.67,0037.59,0034.73
2021-09-08 18:29:00,,0832.7,5.01,0.00,29.2,26.7,00.0,38.3,30.8,19.7,0001.1,0058.53,0037.53,0034.66
2021-09-08 18:30:00,,0832.8,4.99,0.00,29.2,27.1,00.0,38.3,30.9,20.5,0001.4,0059.33,0037.57,0034.65
2021-09-08 18:31:00,,0832.8,5.00,0.00,29.2,27.5,00.0,38.3,31.0,20.7,0001.4,0060.78,0037.53,0034.61
2021-09-08 18:32:00,,0832.8,5.00,0.00,29.3,27.9,00.0,38.3,31.1,20.3,0001.7,0060.87,0037.55,0034.64
2021-09-08 18:33:00,,0832.8,5.00,0.00,29.3,28.1,00.0,38.3,31.2,20.3,0002.0,0062.81,0037.65,0034.70
2021-09-08 18:34:00,,0832.8,5.00,0.00,29.4,28.4,00.0,38.3,31.3,20.1,0002.2,0064.16,0037.67,0034.72
2021-09-08 18:35:00,,0832.7,5.01,0.00,29.4,28.0,00.0,38.4,31.2,20.1,0002.2,0064.36,0037.58,0034.72
2021-09-08 18:36:00,,0832.7,4.99,0.00,29.3,26.3,00.0,38.3,30.7,20.0,0002.3,0064.19,0037.67,0034.79
2021-09-08 18:37:00,,0832.7,5.01,0.00,29.2,25.9,00.0,38.3,30.6,19.4,0002.7,0064.29,0037.77,0034.82
2021-09-08 18:38:00,,0832.7,5.00,0.00,29.2,26.3,00.0,38.3,30.7,19.5,0002.7,0063.96,0037.75,0034.85
2021-09-08 18:39:00,,0832.7,4.99,0.00,29.1,26.7,00.0,38.3,30.8,20.0,0002.9,0063.38,0037.76,0034.90
2021-09-08 18:40:00,,0832.7,5.00,0.00,29.2,27.1,00.0,38.3,30.9,20.4,0002.8,0062.56,0037.79,0034.94
2021-09-08 18:41:00,,0832.7,5.01,0.00,29.2,27.5,00.0,38.3,31.0,20.0,0002.8,0062.36,0037.74,0034.95
2021-09-08 18:42:00,,0832.7,4.99,0.00,29.3,27.9,00.0,38.3,31.1,19.8,0002.7,0061.76,0037.89,0035.02
2021-09-08 18:43:00,,0832.7,4.99,0.00,29.3,28.1,00.0,38.3,31.2,19.4,0002.6,0061.44,0037.93,0035.00
2021-09-08 18:44:00,,0832.7,5.00,0.00,29.4,28.4,00.0,38.3,31.3,19.5,0002.4,0059.50,0037.84,0034.95
2021-09-08 18:45:00,,0832.7,5.00,0.00,29.4,28.5,00.0,38.3,31.3,19.2,0002.0,0058.14,0037.81,0034.95
2021-09-08 18:46:00,,0832.7,5.01,0.00,29.4,27.6,00.0,38.3,31.1,19.1,0002.2,0057.14,0037.81,0034.95
2021-09-08 18:47:00,,0832.7,5.01,0.00,29.3,26.0,00.0,38.3,30.7,19.6,0002.3,0056.73,0037.67,0034.87
2021-09-08 18:48:00,,0832.7,5.00,0.00,29.2,26.0,00.0,38.3,30.6,20.1,0002.0,0057.21,0037.63,0034.87
2021-09-08 18:49:00,,0832.7,5.00,0.00,29.2,26.4,00.0,38.3,30.8,20.2,0002.1,0057.29,0037.62,0034.85
2021-09-08 18:50:00,,0832.7,5.00,0.00,29.2,26.9,00.0,38.3,30.8,20.3,0001.8,0057.42,0037.62,0034.81
2021-09-08 18:51:00,,0832.6,5.00,0.00,29.2,27.3,00.0,38.2,30.9,20.0,0001.6,0057.54,0037.61,0034.82
2021-09-08 18:52:00,,0832.6,5.00,0.00,29.2,27.7,00.0,38.2,31.0,20.5,0001.5,0057.39,0037.58,0034.77
2021-09-08 18:53:00,,0832.6,5.00,0.00,29.3,28.0,00.0,38.3,31.1,20.7,0001.6,0057.03,0037.47,0034.74
2021-09-08 18:54:00,,0832.6,5.00,0.00,29.3,28.3,00.0,38.3,31.2,20.7,0001.8,0055.94,0037.37,0034.77
2021-09-08 18:55:00,,0832.6,5.00,0.00,29.4,28.2,00.0,38.3,31.2,20.4,0001.9,0055.92,0037.43,0034.83
2021-09-08 18:56:00,,0832.6,5.01,0.00,29.3,26.6,00.0,38.3,30.8,20.7,0002.2,0056.04,0037.44,0034.85
2021-09-08 18:57:00,,0832.6,5.00,0.00,29.1,25.7,00.0,38.3,30.5,20.8,0002.2,0055.30,0037.40,0034.83
2021-09-08 18:58:00,,0832.6,5.00,0.00,29.1,26.0,00.0,38.2,30.6,21.1,0002.1,0055.13,0037.45,0034.86
2021-09-08 18:59:00,,0832.6,5.01,0.00,29.1,26.5,00.0,38.2,30.7,21.1,0002.2,0054.21,0037.53,0034.86
